Regional Weather Roundup
Issued by NWS

Home | Current Version | Previous Version | Text Only | Print | Product List | Glossary On
Versions: 1 2 3 4 5 6 7 8 9 10 11 12 13 14 15 16 17 18 19 20 21 22 23 24 25 26 27 28
000
ASUS45 KPSR 181810
RWRAZ

ARIZONA HOURLY REGIONAL WEATHER ROUNDUP
NATIONAL WEATHER SERVICE PHOENIX AZ
1100 AM MST SAT NOV 18 2017

NOTE: FAIR INDICATES FEW OR NO CLOUDS BELOW 12,000 FEET WITH NO
SIGNIFICANT WEATHER AND/OR OBSTRUCTIONS TO VISIBILITY.

AZZ001>003-036-181900-
NORTHWEST ARIZONA

CITY           SKY/WX    TMP DP  RH WIND       PRES   REMARKS
BULLHEAD CITY  SUNNY     61  18  18 N32G39    30.28F
KINGMAN        SUNNY     54  17  23 N13       30.32R
6HR MIN TEMP:  34; 6HR MAX TEMP:  54;

$$

AZZ004>008-015-016-018-181900-
NORTH CENTRAL ARIZONA

CITY           SKY/WX    TMP DP  RH WIND       PRES   REMARKS
GRAND CANYON   SUNNY     41   2  19 NE15      30.38R
6HR MIN TEMP:  27; 6HR MAX TEMP:  41;

WILLIAMS       SUNNY     46   9  21 S9        30.34R
PRESCOTT       SUNNY     50  22  33 VRB5      30.31R
6HR MIN TEMP:  31; 6HR MAX TEMP:  50;

FLAGSTAFF      SUNNY     38   2  22 E15       30.37R WCI  29
6HR MIN TEMP:  27; 6HR MAX TEMP:  38;

PAYSON         SUNNY     52  19  28 VRB5      30.31S
PAGE           SUNNY     45  13  27 N5        30.43R
6HR MIN TEMP:  34; 6HR MAX TEMP:  45;

$$

AZZ009>014-017-181900-
NORTHEAST ARIZONA

CITY           SKY/WX    TMP DP  RH WIND       PRES   REMARKS
WINSLOW        SUNNY     45  11  25 CALM      30.41S
6HR MIN TEMP:  34; 6HR MAX TEMP:  45;

SAINT JOHNS    SUNNY     44  17  33 CALM      30.36S
6HR MIN TEMP:  27; 6HR MAX TEMP:  45;

WINDOW ROCK    SUNNY     40  11  30 CALM      30.38S
6HR MIN TEMP:  22; 6HR MAX TEMP:  41;

SHOW LOW       SUNNY     43  12  28 N12       30.37S
$$

AZZ540-542>544-546-548-181900-
GREATER PHOENIX AREA

CITY           SKY/WX    TMP DP  RH WIND       PRES   REMARKS
PHOENIX        MOSUNNY   72  33  24 E10       30.15S
6HR MIN TEMP:  56; 6HR MAX TEMP:  72;

BUCKEYE        SUNNY     72 N/A N/A W6        30.16F
GLENDALE       SUNNY     72  28  20 N8        30.18S
LUKE AFB       SUNNY     72  28  19 N12       30.15F
6HR MIN TEMP:  53; 6HR MAX TEMP:  72;

DEER VALLEY    SUNNY     72  26  18 N7        30.16S
6HR MIN TEMP:  54; 6HR MAX TEMP:  72;

SCOTTSDALE     SUNNY     71  34  25 S5        30.17S
6HR MIN TEMP:  55; 6HR MAX TEMP:  72;

MESA-FALCON    SUNNY     72  28  20 N16       30.17R
MESA-GATEWAY   SUNNY     72  36  26 W3        30.16S
CHANDLER       SUNNY     72  34  25 N8        30.15S
$$

AZZ539-553-181900-
SOUTHWEST MARICOPA COUNTY AND PINAL COUNTY

CITY           SKY/WX    TMP DP  RH WIND       PRES   REMARKS
CASA GRANDE    NOT AVBL
$$

AZZ503-504-507>509-181900-
SOUTHEAST ARIZONA

CITY           SKY/WX    TMP DP  RH WIND       PRES   REMARKS
TUCSON         SUNNY     70  41  34 NW5       30.17F
6HR MIN TEMP:  52; 6HR MAX TEMP:  70;

DAVIS-MONTHAN  SUNNY     69  40  34 N5        30.15S
6HR MIN TEMP:  51; 6HR MAX TEMP:  69;

RYAN FIELD     SUNNY     70  41  35 NE3       30.17S
NOGALES        SUNNY     68  39  34 CALM      30.18F
6HR MIN TEMP:  44; 6HR MAX TEMP:  69;

SIERRA VISTA   SUNNY     66  39  36 E8        30.24F
6HR MIN TEMP:  47; 6HR MAX TEMP:  66;

DOUGLAS        SUNNY     65  38  36 CALM      30.22S
6HR MIN TEMP:  43; 6HR MAX TEMP:  66;

SAFFORD        SUNNY     65  33  30 SW3       30.19F
6HR MIN TEMP:  52; 6HR MAX TEMP:  66;

$$

AZZ532-181900-
SOUTHWEST ARIZONA

CITY           SKY/WX    TMP DP  RH WIND       PRES   REMARKS
YUMA           SUNNY     71  22  15 N23G31    30.16R
6HR MIN TEMP:  64; 6HR MAX TEMP:  71;

$$

CAZ041-043-047-048-061-525>527-560>570-181900-
SOUTHERN CALIFORNIA

CITY           SKY/WX    TMP DP  RH WIND       PRES   REMARKS
DOWNTOWN L.A.  SUNNY     70  47  43 CALM      30.15F
6HR MIN TEMP:  55; 6HR MAX TEMP:  70;

L.A. AIRPORT   SUNNY     70  55  59 VRB5      30.16S
6HR MIN TEMP:  55; 6HR MAX TEMP:  71;

SAN DIEGO      MOSUNNY   68  55  63 NW5       30.16F
6HR MIN TEMP:  57; 6HR MAX TEMP:  68;

BURBANK        SUNNY     67  42  40 CALM      30.17R
6HR MIN TEMP:  51; 6HR MAX TEMP:  68;

ONTARIO        SUNNY     65  48  54 CALM      30.17F
6HR MIN TEMP:  52; 6HR MAX TEMP:  65;

RIVERSIDE      SUNNY     72  32  23 E9        30.17S
6HR MIN TEMP:  52; 6HR MAX TEMP:  72;

PALM SPRINGS   SUNNY     75  18  11 W7        30.22S
6HR MIN TEMP:  66; 6HR MAX TEMP:  75;

EL CENTRO NAS  MOSUNNY   73  23  15 N8        30.21S
6HR MIN TEMP:  53; 6HR MAX TEMP:  74;

IMPERIAL       SUNNY     73  29  19 N5        30.19R
6HR MIN TEMP:  54; 6HR MAX TEMP:  73;

BLYTHE         SUNNY     68  18  14 N17       30.23S
6HR MIN TEMP:  59; 6HR MAX TEMP:  68;

NEEDLES        SUNNY     64  17  16 N20       30.29S
6HR MIN TEMP:  55; 6HR MAX TEMP:  64;

$$

NVZ020-UTZ003-181900-
SOUTHERN NEVADA-UTAH

CITY           SKY/WX    TMP DP  RH WIND       PRES   REMARKS
LAS VEGAS      SUNNY     55  13  18 N7        30.38S
6HR MIN TEMP:  48; 6HR MAX TEMP:  55;

SALT LAKE CITY MOSUNNY   38  24  57 SE8       30.47R WCI  32
6HR MIN TEMP:  30; 6HR MAX TEMP:  38;

$$

NMZ009-TXZ055-181900-
NEW MEXICO-WEST TEXAS

CITY           SKY/WX    TMP DP  RH WIND       PRES   REMARKS
ALBUQUERQUE    MOSUNNY   44   3  18 N10       30.36S
6HR MIN TEMP:  36; 6HR MAX TEMP:  44;

EL PASO        PTSUNNY   62  32  32 N16       30.21S
6HR MIN TEMP:  58; 6HR MAX TEMP:  66;

$$


........................KEY........................
SKY/WX - SKY CONDITION/WEATHER
TMP    - TEMPERATURE IN FAHRENHEIT
DP     - DEW POINT IN FAHRENHEIT
RH     - RELATIVE HUMIDITY IN PERCENT
WIND   - DIRECTION AND SPEED IN MILES PER HOUR (MPH)
VRB    - VARIABLE WIND DIRECTION
PRES   - MEAN SEA LEVEL PRESSURE IN INCHES OF MERCURY
         F - FALLING PRESSURE   R - RISING PRESSURE
         S - STEADY PRESSURE
VSB    - VISIBILITY IN MILES
HX     - HEAT INDEX IN FAHRENHEIT
WCI    - WIND CHILL INDEX IN FAHRENHEIT
TC     - TEMPERATURE IN CELSIUS WHICH IS ALSO KNOWN AS
         TEMPERATURE IN CENTIGRADE
AFB    - AIR FORCE BASE
         LUKE AFB IS LUKE AIR FORCE BASE
         DAVIS-MONTHAN IS DAVIS-MONTHAN AIR FORCE BASE
NAS    - NAVAL AIR STATION
         EL CENTRO NAS IS EL CENTRO NAVAL AIR STATION
N/A    - NOT AVAILABLE





USA.gov is the U.S. government's official web portal to all federal, state and local government web resources and services.